Location: ??????
(41.3164°N, 22.6615°E)
Time: 02:18:36
(UTC+00:00)

STRAND 1 - Pass Details

Date: 06 July 2022
Orbit: 767 x 781 km, 98.4° (Epoch: 08 August)

Event Time Altitude Azimuth Distance (km) Brightness Sun altitude
Rises 18:28:56 0° 2° (N) 3,264 ? -4.5°
Reaches altitude 10° 18:31:31 10° 352° (N) 2,330 ? -4.9°
Maximum altitude 18:35:52 29° 293° (WNW) 1,392 ? -5.6°
Drops below altitude 10° 18:40:12 10° 235° (SW) 2,309 ? -6.2°
Sets 18:42:45 0° 224° (SW) 3,229 ? -6.6°
